Location: Unspecified
(0.0000°N, 0.0000°E)
Time: 04:41:35
(UTC+02:00)

H-2A R/B - Visible Passes

Search period start: 25 August 2016 00:00
Search period end: 04 September 2016 00:00
Orbit: 310 x 33141 km, 28.0° (Epoch: 23 August)

Date Brightness Start Highest point End Pass type
(mag) Time Alt. Az. Time Alt. Az. Time Alt. Az.
25 Aug 8.9 22:52:06 10° E 01:21:34 23° E 02:37:28 10° ESE visible
26 Aug 8.7 05:11:55 10° WNW 06:15:13 17° WNW 07:55:57 10° W visible
26 Aug 7.2 23:33:34 10° NW 03:28:34 82° NNW 08:33:21 10° SE visible
27 Aug 5.9 18:42:16 10° NW 01:52:54 34° ESE 03:24:22 10° ESE visible
29 Aug 6.9 00:09:17 10° NW 03:07:23 76° NW 09:07:54 10° SE visible
29 Aug 5.9 19:16:40 10° NW 19:23:58 25° NNE 20:21:57 10° ENE visible
31 Aug 6.6 00:45:27 10° NW 03:07:27 68° NW 09:42:15 10° SE visible
31 Aug 6.4 19:50:58 10° NW 20:01:43 29° NNE 04:44:32 10° ESE visible
02 Sep 6.3 01:22:19 10° NW 03:25:27 59° WNW 10:16:24 10° SE visible
02 Sep 6.8 20:25:14 10° NW 20:41:23 34° NNE 05:21:42 10° SE visible
